This demonstration page uses our WeatherBlox Daily Observations layout. Learn more.

Left ArrowRight Arrow

36.17497, -115.13722

Hourly Observations for October 1, 2021

Temp ( °F °C ) Dew Point ( °F °C ) Humidity (%) Winds ( mph kmh ) Pressure ( in mb ) Visibility ( mi km ) Precip ( " mm )
12:53 am 00:53 Clear 65 18.3 23 -5 20 20 N 5 7 30.03 1017 10 16 N/A
1:53 am 01:53 Clear 65 18.3 26 -3.3 23 23 WNW 6 9 30.04 1017 10 16 N/A
2:53 am 02:53 Clear 65 18.3 23 -5 20 20 NW 5 7 30.03 1017 10 16 N/A
3:53 am 03:53 Clear 68 20 14 -10 12 12 NW 14 22 30.01 1016 10 16 N/A
4:53 am 04:53 Clear 67 19.4 18 -7.8 15 15 NW 15 24 30.02 1017 10 16 N/A
5:53 am 05:53 Clear 64 17.8 20 -6.7 18 18 VRB 5 7 30.05 1018 10 16 N/A
6:53 am 06:53 Sunny 63 17.2 20 -6.7 19 19 NNW 14 22 30.07 1018 10 16 N/A
7:53 am 07:53 Sunny 69 20.6 22 -5.6 17 17 N 6 9 30.08 1019 10 16 N/A
8:53 am 08:53 Sunny 72 22.2 21 -6.1 15 15 NW 9 15 30.09 1019 10 16 N/A
9:53 am 09:53 Sunny 76 24.4 23 -5 14 14 NNW 10 17 30.09 1019 10 16 N/A
10:53 am 10:53 Sunny 79 26.1 24 -4.4 13 13 NNE 7 11 30.08 1019 10 16 N/A
11:53 am 11:53 Sunny 79 26.1 25 -3.9 14 14 S 5 7 30.08 1019 10 16 N/A
12:53 pm 12:53 Sunny 82 27.8 27 -2.8 13 13 VRB 5 7 30.06 1018 10 16 N/A
1:53 pm 13:53 Sunny 84 28.9 27 -2.8 12 12 undefined N/A 30.03 1017 10 16 N/A
2:53 pm 14:53 Sunny 84 28.9 24 -4.4 11 11 E 8 13 30.01 1016 10 16 N/A
3:53 pm 15:53 Sunny 84 28.9 24 -4.4 11 11 ESE 6 9 30.00 1016 10 16 N/A
4:53 pm 16:53 Sunny 85 29.4 23 -5 10 10 N N/A 29.99 1016 10 16 N/A
5:53 pm 17:53 Sunny 83 28.3 22 -5.6 10 10 ESE 6 9 29.99 1016 10 16 N/A
6:53 pm 18:53 Clear 82 27.8 24 -4.4 12 12 SSW 3 6 30.01 1016 10 16 N/A
7:53 pm 19:53 Clear 79 26.1 26 -3.3 14 14 W 5 7 30.01 1016 10 16 N/A
8:53 pm 20:53 Clear 75 23.9 28 -2.2 18 18 WNW 5 7 30.03 1017 10 16 N/A
9:53 pm 21:53 Clear 73 22.8 26 -3.3 17 17 WNW 6 9 30.04 1017 10 16 N/A
10:53 pm 22:53 Clear 70 21.1 30 -1.1 23 23 NW 5 7 30.05 1018 10 16 N/A
11:53 pm 23:53 Clear 68 20 29 -1.7 23 23 NW 5 7 30.06 1018 10 16 N/A

Powered by AerisWeather